Location: Allen Lane School
(37.8198°N, 89.7382°W)
Time: 20:42:20
(UTC+00:00)

Cosmos 44 - Pass Details

Date: 08 July 2022
Orbit: 595 x 766 km, 65.1° (Epoch: 13 August)

Event Time Altitude Azimuth Distance (km) Brightness Sun altitude
Exits shadow 05:47:34 41° 331° (NNW) 928 4.3 -29.6°
Drops below altitude 10° 05:51:10 10° 17° (NNE) 1,992 6.5 -29.6°
Sets 05:53:30 0° 24° (NNE) 2,881 7.4 -29.7°
